Location: Newark
(40.0667°N, 18.0500°E)
Time: 21:02:28
(UTC+00:00)

N. Korean satellite - Pass Details

Date: 03 February 2020
Orbit: 456 x 505 km, 97.2° (Epoch: 26 February)

Event Time Altitude Azimuth Distance (km) Brightness Sun altitude
Rises 05:00:34 0° 3° (N) 2,574 10.1 -10.8°
Reaches altitude 10° 05:02:42 10° 356° (N) 1,696 9.1 -10.4°
Maximum altitude 05:06:08 40° 287° (WNW) 743 7.0 -9.8°
Drops below altitude 10° 05:09:36 10° 216° (SW) 1,703 9.1 -9.1°
Sets 05:11:45 0° 209° (SSW) 2,586 10.1 -8.7°
